Location: Rosenheim
(47.8408°N, 12.2113°E)
Time: 02:04:15
(UTC+01:00)

ISS - Pass Details

Date: 13 January 2018
Orbit: 401 x 406 km, 51.6° (Epoch: 17 January)

Event Time Altitude Azimuth Distance (km) Brightness Sun altitude
Exits shadow 07:07:22 - 266° (W) 1,552 -1.4 -8.2°
Reaches altitude 10° 07:07:42 10° 262° (W) 1,463 -1.5 -8.1°
Maximum altitude 07:09:46 16° 223° (SW) 1,166 -1.7 -7.8°
Drops below altitude 10° 07:11:49 10° 184° (S) 1,458 -0.7 -7.5°
Sets 07:14:27 0° 161° (SSE) 2,314 0.7 -7.1°
